Clayton Fire Co DE US WEATHERSTEM current weather conditions

sailwx.info

Wind from 279 at 5 knots gusting 9

Air temperature 6.2° C
Dewpoint -2.9° C

Last reported at 2019-Dec-15 23:00 UTC.
Time now 2019-Dec-15 23:33 UTC

Location: N 39°18' W 075°38'.
View on Google Maps.

See reports from other nearby stations

  
Tides and Currents Weather Stations Pressure Air Temp Water Temp Dewpoint Dewpoint Depression Visibility Wind Speed Wind Dir Waves Ship Positions
date/time (UTC)wind fromknots sea level pressurealtimeterstation pressurevisibilityair tempwater tempwave heightnotes
2019-Dec-15 23:00 279 5 gusting 9 6.2
2019-Dec-15 22:50 294 3 gusting 10 6.4
2019-Dec-15 22:40 297 3 gusting 13 6.7
2019-Dec-15 22:30 313 5 gusting 15 6.8
2019-Dec-15 22:20 306 4 gusting 12 7.1
2019-Dec-15 22:10 315 5 gusting 9 7.2
2019-Dec-15 22:00 336 7 gusting 12 7.6
2019-Dec-15 21:50 321 7 gusting 11 7.8
2019-Dec-15 21:40 312 5 gusting 13 8.1
2019-Dec-15 21:30 302 3 gusting 9 8.3
2019-Dec-15 21:20 285 6 gusting 11 8.4
2019-Dec-15 21:10 336 3 gusting 10 8.6
2019-Dec-15 21:00 302 3 gusting 11 8.8
2019-Dec-15 20:50 304 8 gusting 13 8.9
2019-Dec-15 20:40 319 4 gusting 15 9.1
2019-Dec-15 20:30 327 11 gusting 13 9.2
2019-Dec-15 20:20 319 8 gusting 13 9.7
2019-Dec-15 20:10 303 15 gusting 16 10.0
2019-Dec-15 20:00 291 6 gusting 14 9.9
2019-Dec-15 19:50 311 7 gusting 13 9.9
2019-Dec-15 19:40 303 4 gusting 14 9.8
2019-Dec-15 19:30 307 6 gusting 19 9.7
2019-Dec-15 19:20 311 8 gusting 17 9.7
2019-Dec-15 19:10 319 12 gusting 14 9.7
2019-Dec-15 19:00 326 7 gusting 16 10.1
2019-Dec-15 18:50 315 4 gusting 14 10.1
2019-Dec-15 18:40 286 15 gusting 18 10.2
2019-Dec-15 18:30 286 11 gusting 19 10.1
2019-Dec-15 18:20 299 10 gusting 21 10.2
2019-Dec-15 18:10 302 10 gusting 19 10.6
2019-Dec-15 18:00 281 17 gusting 22 10.6
2019-Dec-15 17:50 263 8 gusting 19 10.6
2019-Dec-15 17:40 311 13 gusting 18 10.6
2019-Dec-15 17:30 260 9 gusting 18 11.0
2019-Dec-15 17:20 292 9 gusting 22 11.3
2019-Dec-15 17:10 250 13 gusting 21 11.2
2019-Dec-15 17:00 294 9 gusting 22 10.8
2019-Dec-15 16:50 259 8 gusting 17 10.4
2019-Dec-15 16:40 242 6 gusting 22 10.1
2019-Dec-15 16:30 274 7 gusting 20 10.2
2019-Dec-15 16:20 255 11 gusting 15 10.3
2019-Dec-15 16:10 292 9 gusting 20 10.2
2019-Dec-15 16:00 271 5 gusting 19 10.0
2019-Dec-15 15:50 277 8 gusting 20 10.0
2019-Dec-15 15:40 275 12 gusting 19 9.9
2019-Dec-15 15:30 258 11 gusting 19 10.1
2019-Dec-15 15:20 279 9 gusting 19 10.1
2019-Dec-15 15:10 244 13 gusting 23 9.9
2019-Dec-15 15:00 265 11 gusting 21 9.7
2019-Dec-15 14:50 238 6 gusting 17 9.5
2019-Dec-15 14:40 232 4 gusting 15 9.4
2019-Dec-15 14:30 229 12 gusting 17 9.1
2019-Dec-15 14:20 249 9 gusting 14 8.9
2019-Dec-15 14:10 234 2 gusting 16 8.4
2019-Dec-15 14:00 227 7 gusting 13 8.1
2019-Dec-15 13:50 215 6 gusting 13 7.8
2019-Dec-15 13:40 215 5 gusting 11 7.4
2019-Dec-15 13:30 248 6 gusting 12 7.3
2019-Dec-15 13:20 267 6 gusting 12 7.2
2019-Dec-15 13:10 247 4 gusting 10 7.1
2019-Dec-15 13:00 248 6 gusting 9 7.0
2019-Dec-15 12:50 224 4 gusting 12 6.8
2019-Dec-15 12:40 238 4 gusting 7 6.8
2019-Dec-15 12:30 244 1 gusting 8 6.8
2019-Dec-15 12:20 245 2 gusting 10 7.1
2019-Dec-15 12:00 237 5 gusting 13 7.0
2019-Dec-15 11:50 248 1 gusting 10 6.9
2019-Dec-15 11:40 234 2 gusting 11 7.0
2019-Dec-15 11:30 244 7 gusting 12 6.9
2019-Dec-15 11:20 257 2 gusting 13 6.9
2019-Dec-15 11:10 245 6 gusting 13 6.9
2019-Dec-15 11:00 229 9 gusting 13 7.0
2019-Dec-15 10:50 241 2 gusting 13 7.1
2019-Dec-15 10:40 285 9 gusting 13 6.9
2019-Dec-15 10:30 271 7 gusting 13 6.8
2019-Dec-15 10:20 247 9 gusting 13 6.8
2019-Dec-15 10:10 255 7 gusting 13 6.8
2019-Dec-15 10:00 227 2 gusting 12 6.9
2019-Dec-15 09:50 263 5 gusting 13 6.9
2019-Dec-15 09:40 235 8 gusting 16 6.8
2019-Dec-15 09:30 249 13 gusting 14 6.7
2019-Dec-15 09:20 255 4 gusting 14 6.6
2019-Dec-15 09:10 264 15 gusting 15 6.4
2019-Dec-15 09:00 228 3 gusting 12 6.2
2019-Dec-15 08:50 237 7 gusting 13 6.1
2019-Dec-15 08:40 250 3 gusting 13 6.1
2019-Dec-15 08:30 244 6 gusting 13 6.1
2019-Dec-15 08:20 242 6 gusting 11 5.9
2019-Dec-15 08:10 286 6 gusting 14 5.8
2019-Dec-15 08:00 217 7 gusting 13 5.9
2019-Dec-15 07:50 266 8 gusting 15 5.9
2019-Dec-15 07:40 250 9 gusting 14 5.9
2019-Dec-15 07:30 236 2 gusting 12 5.9
2019-Dec-15 07:20 229 5 gusting 14 6.0
2019-Dec-15 07:10 245 6 gusting 15 5.9
2019-Dec-15 07:00 269 6 gusting 15 5.9
2019-Dec-15 06:50 252 12 gusting 15 5.9
2019-Dec-15 06:40 259 7 gusting 14 5.8
2019-Dec-15 06:30 257 7 gusting 15 5.9
2019-Dec-15 06:20 273 6 gusting 14 5.9
2019-Dec-15 06:10 225 7 gusting 14 6.0
2019-Dec-15 06:00 261 3 gusting 11 6.1
2019-Dec-15 05:50 268 6 gusting 13 6.2
2019-Dec-15 05:40 257 2 gusting 13 6.3
2019-Dec-15 05:30 280 5 gusting 13 6.4
2019-Dec-15 05:20 283 5 gusting 13 6.6
2019-Dec-15 05:10 253 11 gusting 12 6.7
2019-Dec-15 05:00 275 7 gusting 15 6.7
2019-Dec-15 04:50 252 4 gusting 13 6.7
2019-Dec-15 04:40 284 5 gusting 14 6.7
2019-Dec-15 04:30 261 7 gusting 14 6.7
2019-Dec-15 04:20 278 3 gusting 16 6.7
2019-Dec-15 04:10 281 7 gusting 14 6.7
2019-Dec-15 04:00 314 4 gusting 14 6.7
2019-Dec-15 03:50 273 7 gusting 14 6.8
2019-Dec-15 03:40 269 11 gusting 21 6.9
2019-Dec-15 03:30 275 11 gusting 24 7.1
2019-Dec-15 03:20 296 4 gusting 16 7.1
2019-Dec-15 03:10 277 14 gusting 19 7.1
2019-Dec-15 03:00 273 8 gusting 22 7.2
2019-Dec-15 02:50 294 7 gusting 18 7.3
2019-Dec-15 02:40 311 14 gusting 18 7.4
2019-Dec-15 02:30 248 10 gusting 16 7.6
2019-Dec-15 02:20 263 10 gusting 18 7.7
2019-Dec-15 02:10 302 6 gusting 19 7.8
2019-Dec-15 02:00 290 8 gusting 15 7.8
2019-Dec-15 01:50 280 11 gusting 16 7.9
2019-Dec-15 01:40 271 13 gusting 17 8.1
2019-Dec-15 01:30 304 11 gusting 18 8.1
2019-Dec-15 01:20 294 8 gusting 13 8.1
2019-Dec-15 01:10 261 9 gusting 13 8.2
2019-Dec-15 01:00 264 6 gusting 17 8.3
2019-Dec-15 00:50 291 4 gusting 20 8.3
2019-Dec-15 00:30 272 6 gusting 18 8.7
2019-Dec-15 00:20 288 16 gusting 19 8.7
2019-Dec-15 00:10 282 6 gusting 17 8.9
2019-Dec-15 00:00 271 6 gusting 17 9.0
2019-Dec-14 23:50 271 7 gusting 19 9.1
2019-Dec-14 23:40 288 4 gusting 20 9.2
2019-Dec-14 23:30 288 9 gusting 19 9.1
2019-Dec-14 23:20 288 8 gusting 18 9.0
2019-Dec-14 23:10 262 3 gusting 16 8.9
2019-Dec-14 23:00 257 10 gusting 14 8.8
2019-Dec-14 22:50 245 6 gusting 14 8.7
2019-Dec-14 22:40 234 4 gusting 12 8.7
2019-Dec-14 22:30 221 12 gusting 14 8.8
2019-Dec-14 22:20 245 10 gusting 15 8.9
2019-Dec-14 22:10 218 8 gusting 17 9.0
2019-Dec-14 22:00 259 6 gusting 14 9.1
2019-Dec-14 21:50 238 4 gusting 12 9.1
2019-Dec-14 21:40 219 6 gusting 13 9.2
2019-Dec-14 21:30 239 8 gusting 11 9.4
2019-Dec-14 21:00 252 1 gusting 10 9.7
2019-Dec-14 20:50 259 6 gusting 10 9.8
2019-Dec-14 20:40 247 2 gusting 10 9.9
2019-Dec-14 20:30 263 2 gusting 12 9.9
2019-Dec-14 20:20 277 1 gusting 13 9.8
2019-Dec-14 20:10 224 5 gusting 14 9.6
2019-Dec-14 20:00 213 7 gusting 12 9.6
2019-Dec-14 19:50 207 3 gusting 16 9.6
2019-Dec-14 19:40 244 14 gusting 16 9.6
2019-Dec-14 19:30 252 7 gusting 19 9.8
2019-Dec-14 19:20 245 13 gusting 17 10.2
2019-Dec-14 19:10 296 9 gusting 15 10.7
2019-Dec-14 19:00 262 6 gusting 16 11.1
2019-Dec-14 18:50 264 13 gusting 19 11.4
2019-Dec-14 18:40 271 8 gusting 15 11.8
2019-Dec-14 18:30 242 16 gusting 21 12.2
2019-Dec-14 18:20 237 8 gusting 14 12.3
2019-Dec-14 18:10 217 10 gusting 16 12.4
2019-Dec-14 18:00 209 6 gusting 18 12.7
2019-Dec-14 17:50 223 4 gusting 11 12.7
2019-Dec-14 17:40 209 10 gusting 10 12.8
2019-Dec-14 17:30 231 8 gusting 10 12.6
2019-Dec-14 17:20 162 3 gusting 6 12.6
2019-Dec-14 17:10 133 3 gusting 7 12.3
2019-Dec-14 17:00 196 3 gusting 6 12.3
2019-Dec-14 16:50 210 4 gusting 5 12.1
2019-Dec-14 16:40 150 3 gusting 6 11.8
2019-Dec-14 16:30 150 4 gusting 6 11.6
2019-Dec-14 16:20 121 4 gusting 6 11.4
2019-Dec-14 16:10 136 3 gusting 4 11.2
2019-Dec-14 16:00 119 2 gusting 5 11.1
2019-Dec-14 15:50 098 3 gusting 6 11.0
2019-Dec-14 15:40 076 1 gusting 3 10.9
2019-Dec-14 15:30 076 0 gusting 3 10.8
2019-Dec-14 15:20 088 0 gusting 3 10.8
2019-Dec-14 15:10 064 2 gusting 3 10.7
2019-Dec-14 15:00 230 1 gusting 2 10.6
2019-Dec-14 14:50 230 0 gusting 1 10.6
2019-Dec-14 14:40 230 0 gusting 1 10.6
2019-Dec-14 14:30 230 0 gusting 2 10.6
2019-Dec-14 14:20 230 1 gusting 2 10.6
2019-Dec-14 14:10 10.5
2019-Dec-14 14:00 230 0 gusting 2 10.4
2019-Dec-14 13:50 230 0 gusting 1 10.4
2019-Dec-14 13:40 10.4
2019-Dec-14 13:30 230 0 gusting 1 10.2
2019-Dec-14 13:20 230 1 gusting 1 10.2
2019-Dec-14 13:10 230 0 gusting 2 10.2
2019-Dec-14 13:00 161 1 gusting 1 10.1
2019-Dec-14 12:50 065 0 gusting 2 10.1
2019-Dec-14 12:40 057 1 gusting 4 10.1
2019-Dec-14 12:30 027 0 gusting 5 10.1
2019-Dec-14 12:20 009 2 gusting 4 10.2
2019-Dec-14 12:10 005 1 gusting 2 10.2
2019-Dec-14 12:00 026 1 gusting 4 10.2
2019-Dec-14 11:50 042 2 gusting 6 10.2
2019-Dec-14 11:40 056 2 gusting 5 10.3
2019-Dec-14 11:30 048 2 gusting 4 10.3
2019-Dec-14 11:20 019 4 gusting 5 10.3
2019-Dec-14 10:50 323 3 gusting 5 10.3
2019-Dec-14 10:40 322 2 gusting 5 10.2
2019-Dec-14 10:30 322 2 gusting 4 10.2
2019-Dec-14 10:20 017 1 gusting 3 10.2
2019-Dec-14 10:10 037 1 gusting 4 10.1
2019-Dec-14 10:00 029 2 gusting 4 10.0
2019-Dec-14 09:50 054 3 gusting 4 10.0
2019-Dec-14 09:40 019 3 gusting 4 9.9
2019-Dec-14 09:30 355 4 gusting 7 9.9
2019-Dec-14 09:20 013 6 gusting 7 9.8
2019-Dec-14 09:00 286 5 gusting 6 9.7
2019-Dec-14 08:50 9.8
2019-Dec-14 08:40 9.8
2019-Dec-14 08:30 9.8
2019-Dec-14 08:20 344 1 gusting 3 9.8
2019-Dec-14 08:10 034 3 gusting 4 9.9
2019-Dec-14 08:00 360 2 gusting 5 9.9
2019-Dec-14 07:50 014 2 gusting 4 10.1
2019-Dec-14 07:40 034 2 gusting 2 10.1
2019-Dec-14 07:30 012 0 gusting 3 10.2
2019-Dec-14 07:20 012 0 gusting 3 10.3
2019-Dec-14 07:10 012 2 gusting 3 10.4
2019-Dec-14 07:00 037 2 gusting 4 10.6
2019-Dec-14 06:50 355 2 gusting 5 10.8
2019-Dec-14 06:40 020 4 gusting 6 11.1
2019-Dec-14 06:30 005 2 gusting 6 11.4
2019-Dec-14 06:20 019 4 gusting 5 11.4
2019-Dec-14 06:10 042 3 gusting 8 11.4
2019-Dec-14 06:00 066 6 gusting 8 11.4
2019-Dec-14 05:50 058 9 gusting 9 11.4
2019-Dec-14 05:40 040 3 gusting 6 11.2
2019-Dec-14 05:30 051 3 gusting 4 11.1
2019-Dec-14 05:20 074 1 gusting 6 10.9
2019-Dec-14 05:10 042 1 gusting 7 10.9
2019-Dec-14 05:00 056 4 gusting 6 10.8
2019-Dec-14 04:50 053 3 gusting 6 10.6
2019-Dec-14 04:40 074 4 gusting 7 10.6
2019-Dec-14 04:30 061 2 gusting 6 10.6
2019-Dec-14 04:20 038 2 gusting 7 10.6
2019-Dec-14 04:10 032 4 gusting 7 10.6
2019-Dec-14 04:00 036 6 gusting 7 10.5
2019-Dec-14 03:50 044 4 gusting 8 10.4
2019-Dec-14 03:40 040 4 gusting 9 10.3
2019-Dec-14 03:20 017 4 gusting 6 10.1
2019-Dec-14 03:10 052 5 gusting 8 10.1
2019-Dec-14 03:00 062 5 gusting 7 10.2
2019-Dec-14 02:50 051 2 gusting 6 10.2
2019-Dec-14 02:40 048 7 gusting 7 10.1
2019-Dec-14 02:30 023 4 gusting 7 10.4
2019-Dec-14 02:20 016 4 gusting 7 10.8
2019-Dec-14 02:10 310 4 gusting 6 11.1
2019-Dec-14 02:00 360 2 gusting 6 11.1
2019-Dec-14 01:50 034 2 gusting 5 10.9
2019-Dec-14 01:40 040 2 gusting 6 10.9
2019-Dec-14 01:30 028 3 gusting 7 11.1
2019-Dec-14 01:20 076 3 gusting 8 11.1
2019-Dec-14 01:10 068 2 gusting 9 11.1
2019-Dec-14 01:00 069 3 gusting 9 11.1
2019-Dec-14 00:50 044 3 gusting 8 11.0
2019-Dec-14 00:40 083 7 gusting 8 11.1
2019-Dec-14 00:30 078 3 gusting 7 11.1
2019-Dec-14 00:10 071 9 gusting 12 11.4
2019-Dec-14 00:00 077 3 gusting 10 11.3
2019-Dec-13 23:50 090 6 gusting 9 11.3
2019-Dec-13 23:40 085 6 gusting 11 11.3
2019-Dec-13 23:30 102 5 gusting 9 11.0
2019-Dec-13 23:20 106 2 gusting 6 9.8
2019-Dec-13 23:10 027 2 gusting 2 9.0
2019-Dec-13 23:00 053 2 gusting 2 8.7